[[{"header":{"parameterUnit":"m.s-1","parameterCategory":1,"la1":30.2991,"la2":30.254,"lo1":-89.0895,"lo2":-89.0444,"dy":0.0017,"dx":0.0017,"nx":28,"ny":28,"refTime":"2024-04-17T09:00:00:Z","depth":0,"parameterNumber":2,"parameterNumberName":"U-component_of_WINDS"},"data":[0,0,0,0,0,0,0,0,0,0,0,0,0,0,0,0,0,0,0,0,0,0,0,0,0,0,0,0,0,0,0,0,0,0,0,0,0,0,0,0,0,0,0,0,0,0,0,0,0,0,0,0,0,0,0,0,0,0,-1.2896,-1.2896,0,-1.2886,-1.2886,-1.2886,-1.2862,-1.2861,-1.2861,-1.286,-1.2851,-1.2852,-1.2852,0,0,0,0,0,0,0,0,0,0,0,0,0,-1.2895,-1.2895,-1.2896,-1.2896,-1.2896,-1.2887,-1.2886,-1.2886,-1.2862,-1.2861,-1.2861,-1.286,-1.2851,-1.2852,-1.2852,0,0,0,0,0,0,0,0,0,0,0,0,0,-1.2892,-1.2895,-1.2896,-1.2883,-1.2881,-1.2887,-1.2886,-1.2886,-1.2862,-1.2861,-1.2861,-1.286,-1.2851,-1.2852,-1.2852,-1.287,0,0,-1.2853,-1.2853,0,0,0,0,0,0,0,0,-1.2892,-1.2892,-1.2885,-1.2883,-1.2882,-1.2875,-1.2883,-1.2881,-1.2862,-1.2869,-1.286,-1.2859,-1.286,-1.2859,-1.2859,-1.2869,-1.2869,-1.2853,-1.2853,-1.2854,-1.2854,0,0,0,0,0,0,0,-1.2892,-1.2892,-1.2892,-1.2885,-1.2883,-1.2878,-1.2876,-1.2882,-1.2869,-1.2869,-1.2867,-1.2866,-1.2859,-1.2859,-1.2859,-1.2869,-1.2853,-1.2853,-1.2854,-1.2854,-1.2894,-1.2895,0,0,0,0,0,0,-1.2894,-1.2892,-1.2893,-1.2892,-1.2885,-1.2878,-1.2877,-1.2878,-1.2869,-1.2867,-1.2867,-1.2865,-1.2859,-1.2859,-1.2859,-1.2879,-1.2854,-1.2854,-1.2854,-1.2893,-1.2894,-1.2895,0,0,0,0,0,0,-1.2894,-1.2894,-1.2893,-1.2892,-1.2891,-1.2879,-1.288,-1.2878,-1.2878,-1.2867,-1.2865,-1.2869,-1.2858,-1.2858,-1.2867,-1.2878,-1.2854,-1.2854,-1.2892,-1.2893,-1.2895,-1.292,0,0,0,0,0,0,-1.2894,-1.2894,-1.2901,-1.2892,-1.2891,-1.2901,-1.2881,-1.2878,-1.2879,-1.2876,-1.2869,-1.2867,-1.2858,-1.2867,-1.2868,-1.2878,-1.2855,-1.2891,-1.2893,-1.2894,-1.2918,-1.2922,-1.2925,0,0,0,0,0,-1.2894,-1.2908,-1.2901,-1.2901,-1.2899,-1.2902,-1.2902,-1.289,-1.288,-1.2886,-1.2879,-1.2867,-1.2877,-1.2868,-1.2869,-1.288,-1.289,-1.2892,-1.2894,-1.2916,-1.2921,-1.2925,0,0,0,0,0,0,-1.2919,-1.2907,-1.2899,-1.291,-1.2907,-1.2898,-1.2905,-1.2895,-1.2896,-1.2893,-1.2879,-1.2878,-1.2889,-1.2886,-1.2875,-1.2897,-1.2882,-1.2884,-1.2899,-1.2903,-1.2906,-1.2907,-1.2855,0,0,0,0,0,-1.2925,-1.2929,-1.2918,-1.293,-1.2929,-1.2917,-1.2919,-1.291,-1.2906,-1.2905,-1.2899,-1.2897,-1.2899,-1.2901,-1.2903,-1.2918,-1.2916,-1.2926,-1.2929,-1.2932,-1.2934,-1.2942,-1.2946,-1.2901,-1.2901,-1.2901,0,0,-1.2939,-1.2933,-1.2936,-1.2934,-1.2931,-1.2935,-1.2916,-1.2922,-1.2925,-1.2906,-1.2914,-1.291,-1.2906,-1.2919,-1.2924,-1.2916,-1.2946,-1.2935,-1.2937,-1.2937,-1.2944,-1.2949,-1.2952,-1.2903,-1.2902,-1.2902,0,0,-1.2966,-1.2962,-1.2971,-1.2968,-1.2964,-1.2956,-1.2959,-1.2951,-1.2947,-1.2955,-1.2942,-1.2946,-1.295,-1.2948,-1.2948,-1.2976,-1.2965,-1.2977,-1.2995,-1.3003,-1.3006,-1.301,-1.3019,-1.3023,-1.2979,-1.2979,-1.2979,0,-1.2984,-1.2989,-1.2977,-1.2983,-1.2983,-1.2966,-1.2976,-1.2974,-1.297,-1.2971,-1.2962,-1.2968,-1.2964,-1.2976,-1.2983,-1.2983,-1.2986,-1.2977,-1.3007,-1.301,-1.3013,-1.3022,-1.3025,-1.298,-1.298,-1.298,-1.298,0,-1.3011,-1.3015,-1.3023,-1.302,-1.3021,-1.3028,-1.3018,-1.3021,-1.3012,-1.3006,-1.3015,-1.301,-1.3011,-1.3014,-1.3006,-1.3024,-1.302,-1.3009,-1.2994,-1.3018,-1.3027,-1.303,-1.2982,-1.2982,-1.2981,-1.2981,0,0,-1.3052,-1.3042,-1.3045,-1.3044,-1.3038,-1.3041,-1.3049,-1.3049,-1.3052,-1.3051,-1.3056,-1.3061,-1.3052,-1.3052,-1.3044,-1.3051,-1.3073,-1.3039,-1.3039,-1.3045,-1.3093,-1.31,-1.3104,-1.3066,-1.3067,-1.3067,-1.3093,0,-1.3077,-1.3088,-1.3078,-1.3092,-1.3096,-1.3081,-1.3087,-1.3085,-1.308,-1.3083,-1.3077,-1.3081,-1.3068,-1.3068,-1.3075,-1.3069,-1.3082,-1.3067,-1.3072,-1.3072,-1.3072,-1.3109,-1.3116,-1.3141,-1.3097,-1.3097,-1.3097,0,-1.3107,-1.3107,-1.3121,-1.3115,-1.3116,-1.3122,-1.3122,-1.3125,-1.3123,-1.3118,-1.3119,-1.3109,-1.3116,-1.3102,-1.3112,-1.3102,-1.3104,-1.3102,-1.3102,-1.3101,-1.3085,-1.3108,-1.3149,-1.3152,-1.3102,-1.3102,-1.3102,0,-1.3135,-1.3139,-1.3147,-1.3147,-1.314,-1.3144,-1.3142,-1.3139,-1.314,-1.314,-1.3141,-1.3142,-1.3143,-1.3144,-1.3136,-1.3126,-1.3147,-1.3132,-1.3144,-1.3144,-1.3148,-1.3148,-1.3188,-1.3151,-1.3151,-1.3151,-1.315,0,-1.3164,-1.3173,-1.316,-1.3165,-1.3175,-1.3164,-1.3174,-1.317,-1.3168,-1.3172,-1.316,-1.3165,-1.3153,-1.3157,-1.3151,-1.316,-1.3161,-1.3158,-1.3156,-1.3158,-1.3159,-1.3158,-1.3156,-1.3151,-1.3151,-1.3151,-1.3151,0,-1.3196,-1.3188,-1.3196,-1.3189,-1.3188,-1.3196,-1.319,-1.3195,-1.3189,-1.3196,-1.3197,-1.3188,-1.3192,-1.3184,-1.3187,-1.3182,-1.3196,-1.3191,-1.3196,-1.3195,-1.3207,-1.3205,-1.3248,-1.3253,-1.3213,-1.3213,-1.3213,0,-1.3215,-1.3221,-1.3215,-1.3217,-1.3215,-1.3219,-1.322,-1.321,-1.3212,-1.321,-1.3215,-1.3218,-1.322,-1.3227,-1.3221,-1.3223,-1.3219,-1.3233,-1.3219,-1.3221,-1.3218,-1.3218,-1.3218,-1.3236,-1.3237,-1.3237,-1.3237,0,-1.3248,-1.3244,-1.3246,-1.3246,-1.3248,-1.3248,-1.3248,-1.325,-1.324,-1.3242,-1.3246,-1.3247,-1.3251,-1.3254,-1.3255,-1.3253,-1.3243,-1.3242,-1.3245,-1.3247,-1.325,-1.3248,-1.3204,-1.3241,-1.3241,-1.324,-1.324,-1.324,-1.3274,-1.3279,-1.3275,-1.3278,-1.3277,-1.3277,-1.3281,-1.3276,-1.3279,-1.328,-1.3275,-1.328,-1.3278,-1.3278,-1.3277,-1.3282,-1.3275,-1.3279,-1.328,-1.3281,-1.3283,-1.325,-1.3282,-1.3282,-1.3282,-1.3281,-1.3281,0,-1.3306,-1.3303,-1.3306,-1.3305,-1.3308,-1.3299,-1.3298,-1.3301,-1.3305,-1.3304,-1.3306,-1.3311,-1.3314,-1.3309,-1.3311,-1.3316,-1.3312,-1.3317,-1.3316,-1.3316,-1.3289,-1.3286,-1.332,-1.332,-1.332,-1.332,-1.332,-1.332,-1.3323,-1.3332,-1.3327,-1.3335,-1.3332,-1.3337,-1.3337,-1.3337,-1.3336,-1.3342,-1.3344,-1.3341,-1.3338,-1.3341,-1.3343,-1.3342,-1.3343,-1.335,-1.3347,-1.3321,-1.3317,-1.3314,-1.3311,-1.335,-1.335,-1.3373,-1.3373,-1.3374]},{"header":{"parameterUnit":"m.s-1","parameterCategory":1,"la1":30.2991,"la2":30.254,"lo1":-89.0895,"lo2":-89.0444,"dy":0.0017,"dx":0.0017,"nx":28,"ny":28,"refTime":"2024-04-17T09:00:00:Z","depth":0,"parameterNumber":3,"parameterNumberName":"V-component_of_WINDS"},"data":[0,0,0,0,0,0,0,0,0,0,0,0,0,0,0,0,0,0,0,0,0,0,0,0,0,0,0,0,0,0,0,0,0,0,0,0,0,0,0,0,0,0,0,0,0,0,0,0,0,0,0,0,0,0,0,0,0,0,3.5363,3.5364,0,3.5409,3.5409,3.541,3.5404,3.5403,3.5403,3.5402,3.5445,3.5447,3.5449,0,0,0,0,0,0,0,0,0,0,0,0,0,3.5269,3.527,3.5363,3.5364,3.5364,3.5409,3.5409,3.541,3.5404,3.5403,3.5402,3.5402,3.5445,3.5447,3.5449,0,0,0,0,0,0,0,0,0,0,0,0,0,3.5311,3.5271,3.5363,3.5367,3.5368,3.5409,3.5409,3.541,3.5404,3.5403,3.5402,3.5401,3.5444,3.5447,3.5449,3.5488,0,0,3.5458,3.5459,0,0,0,0,0,0,0,0,3.5309,3.5315,3.5366,3.5367,3.5368,3.54,3.5392,3.5436,3.5405,3.539,3.5402,3.5401,3.5431,3.5434,3.5445,3.549,3.5492,3.5458,3.546,3.5461,3.5462,0,0,0,0,0,0,0,3.5306,3.5313,3.5381,3.5367,3.5368,3.5365,3.537,3.54,3.5416,3.5392,3.5391,3.5397,3.5431,3.5443,3.5446,3.5493,3.5458,3.546,3.5462,3.5463,3.5573,3.5574,0,0,0,0,0,0,3.5302,3.531,3.538,3.5383,3.5335,3.5368,3.5374,3.539,3.5416,3.5419,3.5398,3.5396,3.5439,3.5443,3.5448,3.5496,3.5461,3.5463,3.5465,3.5572,3.5573,3.5574,0,0,0,0,0,0,3.53,3.5309,3.5378,3.5346,3.5355,3.5371,3.539,3.5392,3.5404,3.5421,3.5423,3.5407,3.5438,3.5444,3.5479,3.5498,3.5465,3.5467,3.557,3.5572,3.5574,3.5593,0,0,0,0,0,0,3.5298,3.5308,3.5324,3.5347,3.5357,3.5409,3.5391,3.5394,3.5409,3.5408,3.543,3.5432,3.5437,3.5475,3.5481,3.5501,3.5469,3.5568,3.5571,3.5573,3.5591,3.5595,3.5599,0,0,0,0,0,3.5294,3.5326,3.5325,3.5333,3.5377,3.541,3.5416,3.5422,3.541,3.5426,3.5437,3.5432,3.5494,3.5478,3.5486,3.5506,3.5567,3.557,3.5573,3.5589,3.5594,3.5599,0,0,0,0,0,0,3.5304,3.5329,3.5328,3.5368,3.5387,3.5409,3.5429,3.5427,3.5449,3.5447,3.5452,3.5457,3.5493,3.5503,3.5484,3.5546,3.5529,3.5534,3.5539,3.5544,3.5548,3.5546,3.5471,0,0,0,0,0,3.5311,3.5336,3.5357,3.5391,3.54,3.5413,3.5428,3.5431,3.545,3.5458,3.5471,3.5489,3.5513,3.5529,3.5551,3.5591,3.5597,3.5609,3.5614,3.5617,3.5621,3.5644,3.5651,3.5584,3.5584,3.5584,0,0,3.5325,3.5342,3.5358,3.5393,3.5408,3.5434,3.542,3.5448,3.5467,3.5462,3.5497,3.5507,3.5527,3.5565,3.5582,3.5575,3.5641,3.5621,3.5623,3.5626,3.5648,3.5654,3.566,3.5586,3.5585,3.5585,0,0,3.5365,3.538,3.5411,3.5426,3.545,3.5458,3.5465,3.5488,3.5495,3.553,3.5527,3.5549,3.5589,3.5605,3.5618,3.5664,3.566,3.5671,3.5694,3.5716,3.5721,3.5726,3.5744,3.575,3.5675,3.5675,3.5675,0,3.5379,3.542,3.5426,3.5455,3.5471,3.5468,3.5499,3.5514,3.5543,3.5553,3.5544,3.5596,3.5609,3.5652,3.5663,3.5673,3.5682,3.5669,3.572,3.5725,3.573,3.5747,3.5753,3.5676,3.5676,3.5676,3.5676,0,3.5438,3.5465,3.5487,3.5517,3.5535,3.5565,3.5575,3.5592,3.5593,3.5602,3.5638,3.5654,3.5681,3.569,3.5691,3.5733,3.5728,3.5719,3.5703,3.5737,3.5753,3.576,3.5678,3.5677,3.5677,3.5677,0,0,3.5486,3.5519,3.5527,3.5542,3.5567,3.5589,3.5618,3.5645,3.566,3.568,3.5705,3.5739,3.5732,3.5747,3.5749,3.5769,3.5806,3.5758,3.5759,3.5768,3.5855,3.5862,3.587,3.5803,3.5804,3.5805,3.5853,0,3.553,3.5584,3.559,3.5637,3.5664,3.5661,3.5687,3.5705,3.5714,3.5737,3.5746,3.5771,3.5759,3.5768,3.5787,3.5798,3.5824,3.5794,3.5827,3.5828,3.5824,3.5878,3.5886,3.5931,3.586,3.5861,3.5861,0,3.5589,3.5612,3.5663,3.5686,3.5697,3.572,3.5746,3.5768,3.5788,3.5793,3.581,3.581,3.584,3.5821,3.5862,3.5842,3.5855,3.5862,3.5864,3.5869,3.5848,3.5886,3.5945,3.5952,3.5871,3.587,3.587,0,3.5621,3.5665,3.5701,3.5713,3.574,3.5757,3.5769,3.5788,3.5804,3.5826,3.5837,3.5861,3.5875,3.5894,3.59,3.5885,3.5941,3.5923,3.5947,3.5947,3.596,3.596,3.6024,3.5966,3.5966,3.5966,3.5966,0,3.5671,3.5702,3.5717,3.5739,3.5774,3.5781,3.5815,3.5826,3.5843,3.5867,3.5865,3.5887,3.5894,3.5917,3.5922,3.5956,3.5962,3.5967,3.5968,3.5968,3.5968,3.5979,3.5976,3.5967,3.5967,3.5967,3.5966,0,3.5714,3.5725,3.5765,3.5787,3.5794,3.5819,3.5838,3.5859,3.5868,3.5898,3.5906,3.5919,3.5946,3.5954,3.5986,3.599,3.6031,3.6028,3.6024,3.6025,3.605,3.6048,3.6125,3.6136,3.6068,3.6069,3.6069,0,3.5746,3.5771,3.5797,3.5814,3.5827,3.5853,3.587,3.5877,3.5894,3.5919,3.5938,3.5965,3.5988,3.6032,3.6043,3.6068,3.6067,3.6093,3.6071,3.6071,3.607,3.6069,3.6072,3.6097,3.6098,3.6098,3.6099,0,3.5803,3.5807,3.5833,3.586,3.5881,3.5902,3.5922,3.5936,3.5945,3.5965,3.5994,3.6011,3.6045,3.6072,3.6098,3.6109,3.6106,3.6105,3.6113,3.6114,3.6112,3.6115,3.6038,3.6104,3.6104,3.6103,3.6103,3.6103,3.5843,3.5865,3.5888,3.5916,3.5932,3.5951,3.5973,3.5985,3.6009,3.6039,3.604,3.6072,3.6091,3.6125,3.6137,3.6162,3.6154,3.6164,3.6167,3.617,3.6173,3.6106,3.6166,3.6166,3.6166,3.6165,3.6165,0,3.5902,3.5916,3.5942,3.5971,3.5993,3.5989,3.6011,3.603,3.6058,3.6077,3.6099,3.6133,3.6159,3.6173,3.62,3.6216,3.6216,3.6223,3.6223,3.6226,3.6177,3.6169,3.6224,3.6224,3.6223,3.6223,3.6223,3.6223,3.5935,3.5973,3.5979,3.6025,3.6038,3.607,3.6084,3.6101,3.6117,3.6155,3.6177,3.6186,3.6203,3.6231,3.6255,3.6258,3.6269,3.6278,3.628,3.6235,3.6229,3.6224,3.6216,3.6279,3.6279,3.6327,3.6327,3.6328]}]]